Regional Weather Roundup
Issued by NWS Cleveland, OH

Home | Current Version | Previous Version | Graphics & Text | Print | Product List | Glossary On
Versions: 1 2 3 4 5 6 7 8 9 10 11 12 13 14 15 16 17 18 19 20 21 22 23 24 25 26 27 28 29 30 31 32 33 34 35 36 37 38 39 40 41 42 43 44 45 46 47 48 49 50
000
ASUS41 KCLE 282200
RWRCLE
OHIO REGIONAL WEATHER ROUNDUP
NATIONAL WEATHER SERVICE WILMINGTON, OH
600 PM EDT FRI AUG 28 2015

NOTE: "FAIR" INDICATES FEW OR NO CLOUDS BELOW 12,000 FEET WITH NO
SIGNIFICANT WEATHER AND/OR OBSTRUCTIONS TO VISIBILITY.

OHZ001>008-015>018-024>027-034-035-043-044-282300-
   NORTHWEST OHIO

CITY           SKY/WX    TMP DP  RH WIND       PRES   REMARKS
DEFIANCE       PTSUNNY   77  56  48 SW3       30.13F
FINDLAY        PTSUNNY   77  56  48 CALM      30.14S
TOLEDO EXPRESS PTSUNNY   75  59  57 S5        30.13F
TOLEDO EXEC    PTSUNNY   77  55  46 SW8       30.15S
LIMA           PTSUNNY   75  55  49 SW5       30.15S
$$

OHZ009>014-019>023-028>033-038-089-282300-
   NORTHEAST OHIO

CITY           SKY/WX    TMP DP  RH WIND       PRES   REMARKS
CLE-HOPKINS    CLOUDY    73  57  57 NE8       30.17S
CLE-LAKEFRONT  MOSUNNY   71  59  65 NE8       30.15S
CUY CO. ARPT   PTSUNNY   73  57  56 N12       30.17S
LORAIN-ELYRIA  PTSUNNY   74  58  57 N9        30.16S
ASHTABULA      SUNNY     71  59  65 N7        30.18S
AKRON-CANTON   PTSUNNY   79  51  37 W7        30.15S
WOOSTER        NOT AVBL
MANSFIELD      CLOUDY    77  54  44 W3        30.16R
YOUNGSTOWN     MOSUNNY   75  54  47 E6        30.16S
$$

OHZ042-051>053-060>062-070>072-077>081-282300-
  SOUTHWEST OHIO

CITY           SKY/WX    TMP DP  RH WIND       PRES   REMARKS
CINC-COVINGTON CLOUDY    78  57  48 S8        30.12F
CINC-LUNKEN    MOSUNNY   78  57  48 CALM      30.12S
HAMILTON       MOSUNNY   79  58  48 E5        30.13S
DAYTON         NOT AVBL
WRIGHT-PAT AFB PTSUNNY   78  56  46 E6        30.14S
DAYTON GENERAL MOSUNNY   75  57  53 S6        30.14S
WILMINGTON     MOSUNNY   77  56  48 VRB3      30.14S
$$

OHZ036-037-039>041-045>050-054>059-063>069-073>076-082>088-282300-
  CENTRAL AND SOUTHEAST OHIO

CITY           SKY/WX    TMP DP  RH WIND       PRES   REMARKS
COLUMBUS       MOSUNNY   77  53  43 SW3       30.13S
OSU AIRPORT    MOSUNNY   78  56  46 CALM      30.14S
BOLTON FIELD   SUNNY     75  57  53 SW3       30.15S
RICKENBACK AFB SUNNY     77  55  46 SE3       30.13F
NEWARK         PTSUNNY   80  53  39 CALM      30.13F
MARION         PTSUNNY   77  55  46 S5        30.16R
LANCASTER      MOSUNNY   78  57  48 SW5       30.14S
ZANESVILLE     MOSUNNY   81  53  37 VRB7      30.13F
NEW PHILLY     MOSUNNY   78  52  40 S3        30.15S
$$


USA.gov is the U.S. government's official web portal to all federal, state and local government web resources and services.